Location: Maccacari
(45.1333°N, 11.1333°E)
Time: 18:19:12
(UTC+00:00)

USA 234 - Pass Details

Date: 18 January 2021
Orbit: 1100 x 1107 km, 123.0° (Epoch: 01 March)

Event Time Altitude Azimuth Distance (km) Brightness Sun altitude
Exits shadow 18:21:55 42° 55° (NE) 1,524 3.6 -24.0°
Maximum altitude 18:23:12 47° 24° (NNE) 1,426 3.6 -24.2°
Drops below altitude 10° 18:29:24 10° 313° (NW) 2,968 6.0 -25.3°
Sets 18:31:58 0° 308° (NW) 3,928 6.9 -25.7°
